When you browse on this site, cookies collect data to enhance your experience and personalize the content and advertising you see.
Visit our Privacy Policy to learn more. By continuing to use the site, you agree to this use of cookies and data.

Hourly Weather Rio Branco

Today, 28 September, Monday

Time Temperature Precipitation Wind Pressure Humidity
00:00 +25°C° 0 mm 1 mps 743 mmHg 88%
01:00 +25°C° 0 mm 1 mps 743 mmHg 88%
02:00 +25°C° 0.5 mm 1 mps 743 mmHg 90%
03:00 +24°C° 0.5 mm 1 mps 743 mmHg 91%
04:00 +24°C° 0.5 mm 1 mps 742 mmHg 93%
05:00 +23°C° 0.4 mm 0 mps 743 mmHg 89%
06:00 +24°C° 0.4 mm 0 mps 744 mmHg 85%
07:00 +25°C° 0.4 mm 0 mps 745 mmHg 82%
08:00 +31°C° 0 mm 1 mps 745 mmHg 67%
09:00 +34°C° 0 mm 1 mps 745 mmHg 53%
10:00 +37°C° 0 mm 1 mps 745 mmHg 39%
11:00 +39°C° 0 mm 1 mps 744 mmHg 37%
12:00 +39°C° 0 mm 1 mps 743 mmHg 35%
13:00 +39°C° 0 mm 1 mps 742 mmHg 34%
14:00 +37°C° 0 mm 1 mps 741 mmHg 35%
15:00 +37°C° 0 mm 1 mps 741 mmHg 36%
16:00 +36°C° 0 mm 1 mps 740 mmHg 37%
17:00 +34°C° 0.8 mm 2 mps 741 mmHg 53%
18:00 +30°C° 0.8 mm 3 mps 742 mmHg 68%
19:00 +27°C° 0.8 mm 4 mps 743 mmHg 83%
20:00 +26°C° 0.1 mm 3 mps 744 mmHg 86%
21:00 +26°C° 0.1 mm 2 mps 744 mmHg 89%
22:00 +25°C° 0.1 mm 1 mps 744 mmHg 93%
23:00 +25°C° 0 mm 1 mps 744 mmHg 93%

Tomorrow, 29 September, Tuesday

Time Temperature Precipitation Wind Pressure Humidity
00:00 +25°C° 0 mm 1 mps 744 mmHg 94%
01:00 +25°C° 0 mm 1 mps 744 mmHg 94%
02:00 +24°C° 0.6 mm 1 mps 744 mmHg 95%
03:00 +24°C° 0.6 mm 1 mps 744 mmHg 96%
04:00 +24°C° 0.6 mm 1 mps 744 mmHg 96%
05:00 +24°C° 1 mm 1 mps 745 mmHg 94%
06:00 +25°C° 1 mm 1 mps 745 mmHg 92%
07:00 +26°C° 1 mm 1 mps 746 mmHg 90%
08:00 +28°C° 0 mm 1 mps 746 mmHg 81%
09:00 +29°C° 0 mm 1 mps 746 mmHg 71%
10:00 +29°C° 0 mm 0 mps 747 mmHg 61%
11:00 +32°C° 0 mm 1 mps 745 mmHg 60%
12:00 +32°C° 0 mm 1 mps 744 mmHg 59%
13:00 +33°C° 0 mm 1 mps 743 mmHg 58%
14:00 +33°C° 0 mm 1 mps 743 mmHg 55%
15:00 +34°C° 0 mm 1 mps 742 mmHg 53%
16:00 +34°C° 0 mm 1 mps 741 mmHg 50%
17:00 +32°C° 0.8 mm 1 mps 742 mmHg 61%
18:00 +30°C° 0.8 mm 1 mps 743 mmHg 72%
19:00 +27°C° 0.8 mm 1 mps 743 mmHg 83%
20:00 +27°C° 0.5 mm 1 mps 744 mmHg 86%
21:00 +26°C° 0.5 mm 1 mps 744 mmHg 89%
22:00 +26°C° 0.5 mm 1 mps 745 mmHg 93%
23:00 +26°C° 0 mm 1 mps 745 mmHg 93%

Day after tomorrow, 30 September, Wednesday

Time Temperature Precipitation Wind Pressure Humidity
00:00 +25°C° 0 mm 1 mps 744 mmHg 94%
01:00 +25°C° 0 mm 1 mps 744 mmHg 94%
02:00 +25°C° 0 mm 1 mps 744 mmHg 94%
03:00 +25°C° 0 mm 1 mps 744 mmHg 94%
04:00 +25°C° 0 mm 1 mps 744 mmHg 94%
05:00 +26°C° 0 mm 1 mps 744 mmHg 89%
06:00 +27°C° 0 mm 1 mps 745 mmHg 85%
07:00 +28°C° 0 mm 1 mps 746 mmHg 80%
08:00 +31°C° 0 mm 1 mps 746 mmHg 66%
09:00 +35°C° 0 mm 1 mps 746 mmHg 53%
10:00 +39°C° 0 mm 1 mps 746 mmHg 39%
11:00 +40°C° 0 mm 1 mps 745 mmHg 36%
12:00 +40°C° 0 mm 1 mps 744 mmHg 33%
13:00 +41°C° 0 mm 1 mps 743 mmHg 31%
14:00 +40°C° 0 mm 1 mps 742 mmHg 34%
15:00 +39°C° 0 mm 1 mps 742 mmHg 37%
16:00 +37°C° 0 mm 1 mps 741 mmHg 39%
17:00 +34°C° 0.2 mm 1 mps 741 mmHg 49%
18:00 +32°C° 0.2 mm 1 mps 742 mmHg 59%
19:00 +29°C° 0.2 mm 1 mps 742 mmHg 69%
20:00 +28°C° 0.3 mm 1 mps 743 mmHg 74%
21:00 +27°C° 0.3 mm 1 mps 743 mmHg 80%
22:00 +26°C° 0.3 mm 1 mps 744 mmHg 86%
23:00 +26°C° 0.4 mm 1 mps 744 mmHg 88%

1 October, Thursday

Time Temperature Precipitation Wind Pressure Humidity
00:00 +25°C° 0.4 mm 1 mps 744 mmHg 91%
01:00 +25°C° 0.4 mm 1 mps 743 mmHg 94%
02:00 +25°C° 0.2 mm 1 mps 743 mmHg 95%
03:00 +25°C° 0.2 mm 1 mps 743 mmHg 96%
04:00 +24°C° 0.2 mm 1 mps 743 mmHg 96%
05:00 +25°C° 0 mm 1 mps 744 mmHg 93%
06:00 +26°C° 0 mm 1 mps 744 mmHg 90%
07:00 +27°C° 0 mm 1 mps 745 mmHg 87%
08:00 +30°C° 0 mm 1 mps 745 mmHg 73%
09:00 +34°C° 0 mm 2 mps 745 mmHg 58%
10:00 +38°C° 0 mm 2 mps 745 mmHg 43%
11:00 +39°C° 0 mm 1 mps 744 mmHg 38%
12:00 +41°C° 0 mm 1 mps 743 mmHg 33%
13:00 +42°C° 0 mm 1 mps 742 mmHg 28%
14:00 +41°C° 0 mm 1 mps 742 mmHg 31%
15:00 +40°C° 0 mm 1 mps 741 mmHg 34%
16:00 +37°C° 0 mm 1 mps 740 mmHg 36%
17:00 +35°C° 0 mm 1 mps 741 mmHg 43%
18:00 +33°C° 0 mm 1 mps 741 mmHg 49%
19:00 +31°C° 0 mm 1 mps 741 mmHg 56%
20:00 +30°C° 0 mm 1 mps 742 mmHg 58%
21:00 +29°C° 0 mm 1 mps 742 mmHg 61%
22:00 +29°C° 0 mm 1 mps 743 mmHg 63%
23:00 +28°C° 0 mm 1 mps 743 mmHg 66%

2 October, Friday

Time Temperature Precipitation Wind Pressure Humidity
00:00 +28°C° 0 mm 1 mps 743 mmHg 70%
01:00 +27°C° 0 mm 1 mps 742 mmHg 73%
02:00 +26°C° 0.1 mm 1 mps 743 mmHg 77%
03:00 +26°C° 0.1 mm 1 mps 743 mmHg 81%
04:00 +25°C° 0.1 mm 1 mps 743 mmHg 85%
05:00 +27°C° 0 mm 1 mps 743 mmHg 80%
06:00 +28°C° 0 mm 1 mps 744 mmHg 75%
07:00 +29°C° 0 mm 1 mps 745 mmHg 69%
08:00 +32°C° 0 mm 1 mps 745 mmHg 59%
09:00 +35°C° 0 mm 1 mps 745 mmHg 48%
10:00 +39°C° 0 mm 1 mps 745 mmHg 38%
11:00 +41°C° 0 mm 1 mps 744 mmHg 34%
12:00 +42°C° 0 mm 1 mps 743 mmHg 30%
13:00 +41°C° 0 mm 0 mps 742 mmHg 26%
14:00 +42°C° 0 mm 1 mps 742 mmHg 31%
15:00 +39°C° 0 mm 2 mps 741 mmHg 36%
16:00 +37°C° 0 mm 2 mps 741 mmHg 41%
17:00 +34°C° 0.3 mm 2 mps 742 mmHg 52%
18:00 +31°C° 0.3 mm 2 mps 742 mmHg 63%
19:00 +28°C° 0.3 mm 1 mps 743 mmHg 74%
20:00 +28°C° 0 mm 1 mps 743 mmHg 77%
21:00 +27°C° 0 mm 1 mps 744 mmHg 79%
22:00 +25°C° 0 mm 0 mps 744 mmHg 81%
23:00 +25°C° 0 mm 0 mps 744 mmHg 81%

3 October, Saturday

Time Temperature Precipitation Wind Pressure Humidity
00:00 +24°C° 0 mm 0 mps 744 mmHg 82%
01:00 +24°C° 0 mm 0 mps 743 mmHg 82%
02:00 +24°C° 0 mm 0 mps 744 mmHg 83%
03:00 +24°C° 0 mm 0 mps 744 mmHg 84%
04:00 +24°C° 0 mm 0 mps 744 mmHg 85%
05:00 +25°C° 0 mm 0 mps 744 mmHg 81%
06:00 +26°C° 0 mm 0 mps 745 mmHg 77%
07:00 +27°C° 0 mm 0 mps 746 mmHg 73%
08:00 +30°C° 0 mm 0 mps 746 mmHg 61%
09:00 +34°C° 0 mm 0 mps 746 mmHg 49%
10:00 +38°C° 0 mm 0 mps 746 mmHg 37%
11:00 +41°C° 0 mm 1 mps 745 mmHg 35%
12:00 +41°C° 0 mm 1 mps 744 mmHg 33%
13:00 +41°C° 0 mm 2 mps 743 mmHg 31%
14:00 +39°C° 0.2 mm 2 mps 742 mmHg 38%
15:00 +36°C° 0.2 mm 3 mps 742 mmHg 46%
16:00 +34°C° 0.2 mm 3 mps 742 mmHg 53%
17:00 +31°C° 0.1 mm 3 mps 742 mmHg 60%
18:00 +29°C° 0.1 mm 3 mps 743 mmHg 67%
19:00 +27°C° 0.1 mm 3 mps 744 mmHg 73%
20:00 +27°C° 0.3 mm 2 mps 744 mmHg 76%
21:00 +27°C° 0.3 mm 2 mps 744 mmHg 79%
22:00 +26°C° 0.3 mm 1 mps 745 mmHg 82%
23:00 +26°C° 0 mm 1 mps 744 mmHg 83%
Show more